GSAT0204 (GALILEO 8)

Last updated on Sat Apr 11 2026 00:02:38 GMT+0000 (Coordinated Universal Time)

1 40545U 15017B 26099.25167343 -.00000079 00000+0 00000+0 0 9994 2 40545 56.8147 343.4949 0002791 294.3476 65.6691 1.70475773 31076
UTC large
Height (km)
Speed (km/s)
/
Latitude / Longitude
Inclination (degrees)
Orbital Period (minutes)
Azimuth
Elevation
Range (km)
Doppler Factor

Next 0 passes for location: London (51.5072 / 0.1276)

Sorry there are no passes over London.
GSAT0204 (GALILEO 8)